Regional Weather Roundup
Issued by NWS

Home | Current Version | Previous Version | Text Only | Print | Product List | Glossary Off
Versions: 1 2 3 4 5 6 7 8 9 10 11 12 13 14 15 16 17 18 19 20 21 22 23 24 25 26 27 28 29 30 31 32 33 34 35 36 37 38 39 40 41 42 43 44 45 46 47 48 49 50

000
ASUS43 KMKX 041911
RWRWI

WISCONSIN REGIONAL WEATHER ROUNDUP
NATIONAL WEATHER SERVICE MILWAUKEE/SULLIVAN WI
100 PM CST SUN DEC 04 2016

NOTE: "FAIR" INDICATES FEW OR NO CLOUDS BELOW 12,000 FEET WITH NO
SIGNIFICANT WEATHER AND/OR OBSTRUCTIONS TO VISIBILITY.

WIZ001-002-006>008-014>016-023>028-042000-
NORTHWEST WISCONSIN

CITY           SKY/WX    TMP DP  RH WIND       PRES   REMARKS
SUPERIOR ARPT  CLOUDY    33  31  90 S7        29.81F WCI  27
ASHLAND        LGT SNOW  32  29  88 S6        29.85F FOG     WCI  26
HAYWARD        LGT SNOW  31  28  89 S9        29.81F VSB 3/4 WCI  23
SIREN          CLOUDY    32  31  96 S8        29.80F FOG     WCI  25
CUMBERLAND     CLOUDY    32  30  93 S9        29.81F FOG     WCI  24
RICE LAKE      CLOUDY    32  30  93 SE12G17   29.84F FOG     WCI  23
CHETEK         CLOUDY    32  30  93 S9        29.83F WCI  24
LADYSMITH      LGT SNOW  32  30  93 S13       29.85F VSB 1   WCI  22
EAU CLAIRE     CLOUDY    32  30  92 S10       29.84F WCI  24
MENOMONIE      CLOUDY    33  32  96 SE6       29.84F FOG     WCI  28
NEW RICHMOND   CLOUDY    33  33  99 S9        29.80F FOG     WCI  25
OSCEOLA        CLOUDY    34  34 100 S9        29.83F FOG     WCI  26
$$

WIZ003>005-009-010-017-018-042000-
NORTH CENTRAL WISCONSIN

CITY           SKY/WX    TMP DP  RH WIND       PRES   REMARKS
MANITOWISH WTR LGT SNOW  29  29 100 S9        29.85F WCI  20
ARBOR VITAE    LGT SNOW  32  30  92 S10       29.86F WCI  23
WOODRUFF       LGT SNOW  32  30  92 S10       29.86F WCI  23
RHINELANDER    LGT SNOW  29  27  92 SE9       29.88F VSB 3/4 WCI  20
EAGLE RIVER    LGT SNOW  29  26  90 S7        29.87F WCI  22
LAND O LAKES   LGT SNOW  30  28  91 S8        29.89F WCI  22
PHILLIPS       LGT SNOW  29  28  96 SE8       29.84F WCI  21
TOMAHAWK       LGT SNOW  29  27  91 SE3       29.88F VSB 1
MEDFORD        MIX PCPN  29  27  93 SE9G17    29.85F VSB 3/4 WCI  21
MERRILL        LGT SNOW  30  29  96 S7        29.90F VSB 3/4 WCI  23
$$

WIZ029-030-035-036-043>047-042000-
CENTRAL WISCONSIN

CITY           SKY/WX    TMP DP  RH WIND       PRES   REMARKS
WAUSAU         SNOW      30  28  92 S9        29.89F VSB 1/2 WCI  22
MOSINEE        LGT SNOW  30  30 100 SE9       29.91F VSB 3/4 WCI  22
MARSHFIELD     SNOW      30  28  92 S10       29.87F VSB 1/2 WCI  21
STEVENS POINT  MIX PCPN  28  28 100 S7        29.93F VSB 3/4 WCI  21
WAUPACA        LGT SNOW  33  31  91 CALM      29.96F
WAUTOMA        LGT SNOW  31  29  92 SE8       29.95F FOG     WCI  23
WISC RAPIDS    LGT SNOW  31  30  96 S9        29.93F VSB 3/4 WCI  23
CAMP DOUGLAS   NOT AVBL
$$

WIZ011>013-019>022-031-037>040-048>050-042000-
NORTHEAST WISCONSIN

CITY           SKY/WX    TMP DP  RH WIND       PRES   REMARKS
ANTIGO         LGT SNOW  28  28  96 SE10      29.90F VSB 1   WCI  19
SHAWANO        HVY RAIN  33  31  92 S5        29.97F WCI  28
OCONTO         CLOUDY    31  30  95 S3        29.99F VSB 1
STURGEON BAY   LGT SNOW  30  28  93 CALM      29.99F VSB 3/4
GREEN BAY      LGT SNOW  32  32 100 S5        29.98F VSB 1   WCI  27
MANITOWOC      LGT SNOW  33  30  88 CALM      29.99F VSB 3/4
APPLETON       LGT SNOW  30  30 100 S8        29.95F VSB 1   WCI  23
CLINTONVILLE   LGT SNOW  32  30  93 S7        29.97F WCI  26
OSHKOSH        SNOW      31  29  92 S5        29.96F VSB 1/2 WCI  26
$$

WIZ032>034-041-042-053>061-042000-
SOUTHWEST WISCONSIN

CITY           SKY/WX    TMP DP  RH WIND       PRES   REMARKS
LA CROSSE      LGT SNOW  34  32  92 S10       29.89F VSB 1   WCI  26
SPARTA         LGT SNOW  32  30  94 S10       29.90F WCI  23
VIROQUA        CLOUDY    31  30  96 SE12      29.88F VSB 3/4 WCI  21
BOSCOBEL       LGT SNOW  33  30  88 CALM      29.94F VSB 3/4
PRAIRIE DU CHI LGT SNOW  32  30  93 E6        29.92F VSB 1   WCI  26
PLATTEVILLE    CLOUDY    31  31 100 SE8       29.93F VSB 3/4 WCI  24
$$

WIZ056-057-062-063-064-067-068-042000-
SOUTH CENTRAL WISCONSIN

CITY           SKY/WX    TMP DP  RH WIND       PRES   REMARKS
REEDSBURG      MIX PCPN  30  30 100 SE5       29.93F VSB 1   WCI  25
BARABOO/DELLS  MIX PCPN  30  29  96 S8        29.93F WCI  23
LONE ROCK      SNOW      31  30  96 SE5       29.95F VSB 1/2 WCI  26
MINERAL POINT  LGT SNOW  32  32 100 SE10      29.93F VSB 3/4 WCI  24
MADISON        LGT SNOW  31  29  92 S9        29.95F VSB 3/4 WCI  23
MIDDLETON      CLOUDY    32  32 100 S7        29.96F VSB 1   WCI  26
WATERTOWN      LGT SNOW  31  31 100 S5        29.96F WCI  26
MONROE         MIX PCPN  30  30 100 S7        29.95S WCI  23
JANESVILLE     SNOW      32  32 100 SE7       29.95F VSB 1/2 WCI  26
$$

WIZ051-052-058>065-066-070>072-042000-
SOUTHEAST WISCONSIN

CITY           SKY/WX    TMP DP  RH WIND       PRES   REMARKS
MILWAUKEE      SNOW      34  31  88 S5        29.97F VSB 1/2 WCI  30
WAUKESHA       LGT SNOW  30  28  93 SE3       29.97F VSB 3/4
MILWAUKEE/TIMM SNOW      32  28  86 CALM      29.98F VSB 1/2
RACINE         LGT SNOW  33  31  92 SE7       29.99F VSB 3/4 WCI  27
BURLINGTON     LGT SNOW  31  31  98 CALM      29.96F VSB 3/4
KENOSHA        SNOW      33  31  92 SE5       29.97F VSB 1/4 WCI  29
FOND DU LAC    LGT SNOW  31  28  89 S6        29.96F FOG     WCI  25
SHEBOYGAN      LGT SNOW  32  30  92 SE3       29.97F VSB 3/4
WEST BEND      LGT SNOW  32  32 100 CALM      29.95F VSB 3/4
JUNEAU         LGT SNOW  30  29  95 SE7       29.96F WCI  23
$$

LSZ147-162-042000-
LAKE SUPERIOR

STATION/POSITION TIME  TEMP    WIND        PRES    WAVE
                       AIR SEA DIR/SP/G            HT/PER
                 (UTC) (F)     (DEG/KT/KT) (MB)    (FT/S)
DEVILS ISLAND    1900   33     140/  9/ 10 1011.5F
PORT WING        1830   33     150/  4/  9 1010.8F
SAXON HARBOR     1840   34     170/  5/ 11 1011.2F
$$

LMZ867-665-643>646-042000-
LAKE MICHIGAN

STATION/POSITION TIME  TEMP    WIND        PRES    WAVE
                       AIR SEA DIR/SP/G            HT/PER
                 (UTC) (F)     (DEG/KT/KT) (MB)    (FT/S)
CHAMBERS ISLAND  1840   32     170/  3/  5 1015.6F
NORTHPORT PIER   1900   31      CALM  / 24 1015.9
SISTER BAY       1808   32        CALM       N/A
ALGOMA LAKESHORE 1806           CALM  /  4   N/A
KEWAUNEE LAKESHO 1848   32     270/  3/  3 1015.2F
SHEBOYGAN LAKESH 1900   34     150/  7/  8 1015.5F
PORT WASHINGTON  1840   37     150/ 13/ 15 1016.3F
MILWAUKEE LAKESH 1850   34     170/  6/  7   N/A
S MID LAKE BUOY  1850   35 48  130/ 12/ 14 1016.2F   2/ 4
KENOSHA   LAKESH 1900   34     150/ 15/ 16 1014.9
$$

TC  - TEMPERATURE IN CELSIUS
VSB - VISIBILITY IN STATUTE MILES
WCI - WIND CHILL INDEX
HX  - HEAT INDEX





USA.gov is the U.S. government's official web portal to all federal, state and local government web resources and services.